CZ-3B DEB, 38748

Orbit data source: Space-Track

CZ-3B DEB, 38748 is space debris in HEO originally from a launch on Sat, 04 Sep 2010 UTC launched from the Xichang Space Center, China (XSC). Debris objects in space refer to the collection of defunct objects orbiting the Earth. Examples of debris include non-operational satellites, rocket bodies, and fragments generated from explosions, collisions, or faulty payload assembly.

Loading next visibility...
Identifier
38748, 2010-042C
Orbit
HEO
Country
Flag of CNCN / PRC
Related business
Manufacturer
CALT
Mission
Spacecraft
Bus & Motor
Unknown
Mass
Unknown
Launch date (UTC)
2010-09-04 (16 years ago)
Launch vehicle
Unknown
Launch site
Xichang Space Center, China (XSC)
Object type
Payload
Rocket body
Debris
Shape & HBR
Unknown shape, 0.1 m
Radar Cross Section
Medium (>0.1 m² and <1 m²)

Expand to show TLE details & history
Last TLE update: 1 day ago

TLE from 1 day ago
0 CZ-3B DEB
1 38748U 10042C   26199.26762393  .00000349  00000-0  76684-3 0  9992
2 38748  24.0928  49.0323 7203319 354.9157   0.6443  2.31686175  5176
Epoch: 2026-07-18T06:25Z
TLE epoch observation values (Epoch: 2026-07-18T06:25:22.707Z)
Latitude
0.00116°
Longitude
16.62081°
Altitude
402.167 km
Speed
10.052 km/s
True Right ascension
03h 16m 11s
True Declination
0° 00' 04"
Sunlit
Object was in daylight at epoch
Visualization orbit readout
Latitude
Unknown
Longitude
Unknown
Altitude
Unknown
Speed
Unknown
Apparent Right ascension
Unknown
Apparent Declination
Unknown
Sunlit
N/A
Visualization observer readout
Local Sidereal Time
19:05:41
Azimuth
Unknown
Elevation
Unknown
Doppler factor
Unknown
Orbital elements
Apogee altitude
35,132.061 km
Perigee altitude
370.025 km
Semi-major axis
24,129.18 km
Eccentricity
0.72033
Inclination
24.0928°
RAAN
49.0323°
Arg. of periapsis
354.9157°
True anomaly
5.70595°
Mean anomaly
0.6443°
Eccentric anomaly
2.30221°
Mean motion
0.57907 °/min
Orbital period
621.69 mins
BSTAR
0.00076684
Loading maneuver chart data...
Computing Atmospheric mass density...
Loading historical data...
Loading historical data...
Loading historical data...
Loading historical data...
Loading historical data...
Loading historical data...
Loading historical data...

Documentation

Showing up to 5 results
|